This is the latest recevied weather packets stored in our database for station/object DL6DJ-15. If no packets are shown the sender has not sent any weather packets the latest 10 day(s).
| Time | Temp. | Humidity | Pressure | Rain* | Wind** | Luminosity | Snow |
|---|---|---|---|---|---|---|---|
| 1777887535 | 28.89° C | 19% | 1015.9 hPa | - | - | - | - |
| 1777887233 | 29.44° C | 20% | 1015.9 hPa | - | - | - | - |
| 1777886933 | 29.44° C | 19% | 1016 hPa | - | - | - | - |
| 1777886633 | 29.44° C | 19% | 1015.9 hPa | - | - | - | - |
| 1777886332 | 28.33° C | 19% | 1015.9 hPa | - | - | - | - |
| 1777886032 | 27.78° C | 22% | 1016.1 hPa | - | - | - | - |
| 1777885731 | 27.78° C | 21% | 1016 hPa | - | - | - | - |
| 1777885431 | 28.33° C | 19% | 1016.1 hPa | - | - | - | - |
| 1777885130 | 28.89° C | 20% | 1016.1 hPa | - | - | - | - |
| 1777884830 | 30° C | 19% | 1016.1 hPa | - | - | - | - |
| 1777884530 | 30.56° C | 18% | 1016.2 hPa | - | - | - | - |
| 1777884229 | 30° C | 18% | 1016.2 hPa | - | - | - | - |
| 1777883929 | 30.56° C | 18% | 1016.2 hPa | - | - | - | - |
| 1777883628 | 30° C | 18% | 1016.2 hPa | - | - | - | - |
| 1777883328 | 30° C | 19% | 1016.2 hPa | - | - | - | - |
| 1777883028 | 29.44° C | 19% | 1016.2 hPa | - | - | - | - |
| 1777882727 | 29.44° C | 19% | 1016.2 hPa | - | - | - | - |
| 1777882427 | 30° C | 19% | 1016.3 hPa | - | - | - | - |
| 1777882126 | 30.56° C | 18% | 1016.3 hPa | - | - | - | - |
| 1777881826 | 30.56° C | 18% | 1016.4 hPa | - | - | - | - |
| 1777881526 | 30.56° C | 20% | 1016.3 hPa | - | - | - | - |
| 1777881225 | 30.56° C | 18% | 1016.4 hPa | - | - | - | - |
| 1777880924 | 31.11° C | 18% | 1016.3 hPa | - | - | - | - |
| 1777880624 | 30° C | 19% | 1016.4 hPa | - | - | - | - |
| 1777880324 | 30° C | 19% | 1016.4 hPa | - | - | - | - |
* Rain since midnight (hover to see other rain measurements)
** Current wind speed in m/s (hover to see current wind gust speed)